sat.trackr.live / text

‹ back to catalog

STARLINK-34071

NORAD 63910 · 2025-095W

PAYLOAD ACTIVE UNKNOWN

§ Identity

Operator
Country
US
Launch date
2025-05-10
Launch site
AFETR
Launch vehicle
Mass (kg)
RCS (m²)

Purposes: comms

External: N2YO · Heavens-Above · Gunter

§ Orbital elements

Epoch: 2026-09-20T09:35:19.853376Z

Period
94.27 min
Inclination
42.9971°
Eccentricity
0.0001075
Mean motion
15.27595286 rev/d
Perigee alt
482.3 km
Apogee alt
483.7 km
Semi-major
6,861.1 km
B*
5.5466e-4
RAAN
156.8125°
Arg perigee
33.5877°
Mean anomaly
326.5043°
Rev number
7,755

§ Raw data

STARLINK-340711 63910U 25095W   26263.39953534  .00015039  00000+0  55466-3 0  99962 63910  42.9971 156.8125 0001075  33.5877 326.5043 15.27595286 77554

JSON: /api/v1/satellites/63910 · /tle

For live sub-satellite position, see the globe view (requires WebGL).

§ Visibility from observer

Set your observer location to see the next 7 days of passes ≥ 10°. The values pass through the URL so the page stays shareable.

No JS? Fill the form by hand. The geolocation button needs JavaScript.